Location: North Evanston
(42.0634°N, 87.6976°W)
Time: 00:53:26
(UTC+00:00)

A-11 Canister half - Visible Passes

Search period start: 12 May 2026 00:00
Search period end: 22 May 2026 00:00
Orbit: 1523 x 1685 km, 47.3° (Epoch: 11 May)

Date Brightness Start Highest point End Pass type
(mag) Time Alt. Az. Time Alt. Az. Time Alt. Az.
12 May 9.4 03:09:30 10° WNW 03:19:19 67° N 03:29:25 10° E visible
12 May 9.0 05:14:55 10° WNW 05:24:57 80° SSW 05:28:53 44° SE visible
12 May 9.9 07:20:47 10° WNW 07:27:05 29° WSW 07:27:05 29° WSW visible
13 May 9.4 02:47:36 10° WNW 02:57:23 66° N 03:07:28 10° E visible
13 May 9.0 04:53:03 10° WNW 05:03:03 82° SSW 05:07:18 42° SE visible
13 May 9.8 06:58:48 10° WNW 07:05:31 31° WSW 07:05:31 31° WSW visible
14 May 9.4 02:25:43 10° WNW 02:35:28 66° N 02:45:31 10° E visible
14 May 9.0 04:31:11 10° WNW 04:41:11 85° SSW 04:45:52 38° ESE visible
14 May 9.8 06:36:50 10° WNW 06:44:05 33° WSW 06:44:05 33° WSW visible
15 May 9.5 02:03:49 10° WNW 02:13:32 65° N 02:23:34 10° E visible
15 May 9.0 04:09:19 10° WNW 04:19:17 87° SSW 04:24:33 34° ESE visible
15 May 9.7 06:14:54 10° WNW 06:22:47 36° WSW 06:22:47 36° WSW visible
16 May 9.5 01:41:56 10° W 01:51:37 65° N 02:01:37 10° E visible
16 May 9.0 03:47:26 10° WNW 03:57:23 89° SW 04:03:19 30° ESE visible
16 May 9.6 05:52:57 10° WNW 06:01:32 38° SW 06:01:32 38° SW visible
17 May 9.5 01:20:02 10° W 01:29:41 65° N 01:39:40 10° E visible
17 May 9.1 03:25:35 10° WNW 03:35:30 89° NNE 03:42:09 26° ESE visible
17 May 9.5 05:31:02 10° WNW 05:40:03 40° SW 05:40:23 40° SW visible
18 May 9.1 03:03:43 10° WNW 03:13:37 86° NNE 03:21:02 22° ESE visible
18 May 9.4 05:09:06 10° WNW 05:18:13 42° SW 05:19:16 41° SSW visible
19 May 9.1 02:41:50 10° WNW 02:51:43 84° NNE 02:59:58 18° ESE visible
19 May 9.4 04:47:11 10° WNW 04:56:24 44° SW 04:58:13 41° SSW visible
20 May 9.2 02:19:58 10° WNW 02:29:49 83° NNE 02:38:58 14° ESE visible
20 May 9.4 04:25:18 10° WNW 04:34:34 46° SW 04:37:13 39° S visible
20 May 10.8 06:35:06 10° WSW 06:35:28 10° WSW 06:35:28 10° WSW visible
21 May 9.2 01:58:07 10° WNW 02:07:55 81° NNE 02:18:00 10° ESE visible
21 May 9.4 04:03:24 10° WNW 04:12:44 49° SW 04:16:16 36° S visible
21 May 10.8 06:12:24 10° W 06:14:31 12° WSW 06:14:31 12° WSW visible
